Regional Weather Roundup
Issued by NWS

Home | Current Version | Previous Version | Graphics & Text | Print | Product List | Glossary On
Versions: 1 2 3 4 5 6 7 8 9 10 11 12 13 14 15 16 17 18 19 20 21 22 23 24 25 26 27
000
ASUS45 KTFX 201110
RWRMT
MONTANA REGIONAL WEATHER ROUNDUP
NATIONAL WEATHER SERVICE GREAT FALLS MT
500 AM MDT THU JUL 20 2017

NOTE: "FAIR" INDICATES FEW OR NO CLOUDS BELOW 12000 FEET WITH NO
SIGNIFICANT WEATHER AND/OR OBSTRUCTIONS TO VISIBILITY.

MTZ001>007-043-201200-
WEST OF THE DIVIDE

CITY           SKY/WX    TMP DP  RH WIND       PRES   REMARKS
KALISPELL      CLEAR     49  44  83 MISG      29.93S
MISSOULA       CLEAR     62  42  47 CALM      29.97R
BUTTE          CLEAR     49  38  65 SE6       30.11R
MULLAN PASS    CLEAR     58  34  40 NW8       30.11S
ANACONDA         N/A     55  37  50 SW6       30.07R
DEER LODGE       N/A     48  41  76 CALM      30.07S
EUREKA           N/A     61  39  44 MISG      29.95
HAMILTON         N/A     57  43  58 SE3       29.99R
LIBBY            N/A     54  43  66 CALM      29.94S
PLAINS           N/A     53  40  61 CALM      29.95F
$$

MTZ008-052>055-201200-
SOUTHWEST MONTANA

CITY           SKY/WX    TMP DP  RH WIND       PRES   REMARKS
BOZEMAN        CLEAR     54  45  71 S9        30.02R
DILLON         CLEAR     54  34  46 SW14      30.07R
W YELLOWSTONE  CLOUDY    41  34  75 CALM      30.22R
ENNIS          CLEAR     68  23  18 S12       30.13R
$$

MTZ009-010-012-014-046-048-049-054-201200-
EAST SLOPES AND CENTRAL MONTANA

CITY           SKY/WX    TMP DP  RH WIND       PRES   REMARKS
CUT BANK       CLEAR     52  37  56 N5        29.98F
GREAT FALLS    PTCLDY    56  34  43 S6        29.95F
MALMSTROM AFB  PTCLDY    63  34  34 CALM      29.95F
HELENA         CLEAR     68  35  29 SW8       29.98S
AUGUSTA          N/A     56  31  38 N12       30.00F
CHOTEAU          N/A     57  37  47 W5        30.00S
CONRAD           N/A     47  43  86 CALM      30.00F
$$

MTZ011-013-016-021-045-047-050-051-201200-
NORTH CENTRAL MONTANA

CITY           SKY/WX    TMP DP  RH WIND       PRES   REMARKS
HAVRE          CLOUDY    63  37  38 E9        29.93S
LEWISTOWN      CLEAR     63  33  32 SE9       29.99F
N BAR RANCH      N/A     55  32  41 W6        30.05S
CHINOOK          N/A     57  46  67 E5        29.93F
JUDITH GAP       N/A     60  34  38 W3        30.01F
STANFORD         N/A     60  32  35 NW6       30.01F
$$

MTZ017>020-022>027-061-062-201200-
NORTHEAST MONTANA

CITY           SKY/WX    TMP DP  RH WIND       PRES   REMARKS
JORDAN           N/A     61  49  64 VRB3      29.94F
SIDNEY         CLEAR     57  50  77 CALM      29.95S
WOLF POINT     CLEAR     54  47  77 CALM      29.95R
MALTA          CLEAR     57  46  67 CALM      29.94S
PLENTYWOOD       N/A     63  52  67 E12       29.97R
POPLAR           N/A     59  54  82 N6        29.94F
SCOBEY           N/A     61  42  49 E9        29.96
$$

MTZ028>42-056>058-201200-
SOUTHCENTRAL AND SOUTHEAST MONTANA

CITY           SKY/WX    TMP DP  RH WIND       PRES   REMARKS
BAKER          PTCLDY    69  55  60 S14       30.02S
BILLINGS       CLEAR     65  41  41 NW5       29.93S
LIVINGSTON     CLEAR     54  42  64 NW7       30.02R
MILES CITY     PTCLDY    74  53  48 SE9       29.94F
BIG TIMBER     CLEAR     59  39  47 SW8       30.03S
EKALAKA          N/A     69  59  70 SE10      30.02F
FORSYTH          N/A     73  52  46 NE6       29.90F
LAUREL           N/A     63  39  41 CALM      29.94R
$$

REGIONAL REPORTS...DAKOTAS

CITY           SKY/WX    TMP DP  RH WIND       PRES   REMARKS
WILLISTON        N/A    N/A N/A N/A MISG      29.95S
MINOT          CLEAR     58  56  93 N3        30.00S
DICKINSON      CLOUDY    66  59  78 S13       29.99S
BEACH          MOCLDY    66  61  82 S10       30.03S
CROSBY           N/A     55  55 100 E7        29.99F
TIOGA            N/A     61  59  94 E12       30.01F
WATFORD CITY     N/A     61  55  82 CALM      29.97R
BISMARCK       MOCLDY    62  60  93 E3        30.02R
GRAND FORKS    PTCLDY    58  58 100 NW8       29.97R
FARGO          MOCLDY    61  60  97 NW3       29.98R
BUFFALO SD       N/A     68  62  81 S3        29.99S
RAPID CITY     PTCLDY    66  62  87 W6        30.08F
$$

REGIONAL REPORTS...WYOMING/IDAHO/WASHINGTON

CITY           SKY/WX    TMP DP  RH WIND       PRES   REMARKS
GILLETTE       CLOUDY    72  55  55 S16       30.08S
SHERIDAN       CLOUDY    62  51  67 SW6       30.01S
BUFFALO WY     CLOUDY    68  51  54 SE15      30.09R
CODY           CLOUDY    66  39  37 SW8       30.08S
YELLOWSTONE LA   N/A     41  36  82 CALM      30.33R
IDAHO FALLS    CLOUDY    55  52  89 NW3       30.07R
BOISE          CLEAR     67  37  33 SE6       29.93R
SPOKANE        MOCLDY    66  42  41 S13       29.95R
$$

REGIONAL REPORTS...ALBERTA

CITY           SKY/WX    TMP DP  RH WIND       PRES   REMARKS
EDMONTON       CLEAR     50  48  93 CALM      29.90S
CALGARY        CLEAR     50  45  81 VRB2      29.91F SMOKE
LETHBRIDGE     CLEAR     55  39  54 S9        29.91F
MEDICINE HAT   CLEAR     52  45  76 CALM      29.91S
WATERTON GATE    N/A     46  39  76 SW3         N/A
CARDSTON         N/A     61  37  41 SW10        N/A
MILK RIVER       N/A     55  39  54 SW5         N/A
$$

REGIONAL REPORTS...SASKATCHEWAN

CITY           SKY/WX    TMP DP  RH WIND       PRES   REMARKS
SWIFT CURRENT  CLEAR     54  48  82 S10       29.96S
REGINA         PTCLDY    52  48  87 SE8       29.99R
SASKATOON      MOCLDY    52  48  87 SW6       29.95R
CYPRESS HILLS    N/A     59  37  44 SE5         N/A
VAL MARIE        N/A     46  39  76 E2          N/A
ROCKGLEN         N/A     57  48  72 E2          N/A
$$




USA.gov is the U.S. government's official web portal to all federal, state and local government web resources and services.